This demonstration page uses our WeatherBlox Daily Observations layout. Learn more.

41.55636, -103.73856

Hourly Observations for May 22, 2018

Temp ( °F °C ) Dew Point ( °F °C ) Humidity (%) Winds ( mph kmh ) Pressure ( in mb ) Visibility ( mi km ) Precip ( " mm )
12:53 am 00:53 Clear 56 13.3 55 12.8 97 97 NE 8 13 29.83 1010 10 16.09344 0 0
1:53 am 01:53 Clear 53 11.7 53 11.7 100 100 NNE 5 7 29.83 1010 10 16.09344 0 0
2:53 am 02:53 Clear 55 12.8 54 12.2 96 96 ENE 7 11 29.83 1010 10 16.09344 0 0
3:53 am 03:53 Clear 54 12.2 54 12.2 100 100 NNE 7 11 29.83 1010 10 16.09344 0 0
4:53 am 04:53 Clear 52 11.1 52 11.1 100 100 SSW 6 9 29.85 1011 9 14.484096 0 0
5:53 am 05:53 Sunny with Mist and Fog 50 10 50 10 100 100 N 6 9 29.85 1011 6 9.656064 0 0
6:53 am 06:53 Sunny 58 14.4 56 13.3 93 93 Calm 29.85 1011 8 12.874752 0 0
7:53 am 07:53 Sunny 59 15 57 13.9 93 93 SSW 5 7 29.85 1011 10 16.09344 0 0
8:53 am 08:53 Sunny 63 17.2 59 15 87 87 E 3 6 29.88 1012 10 16.09344 0 0
9:53 am 09:53 Sunny 67 19.4 60 15.6 79 79 Calm 29.85 1011 10 16.09344 0 0
10:53 am 10:53 Sunny 71 21.7 63 17.2 76 76 ESE 7 11 29.83 1010 10 16.09344 0 0
11:53 am 11:53 Sunny 75 23.9 65 18.3 71 71 SE 13 20 29.8 1009 10 16.09344 0 0
12:53 pm 12:53 Sunny 79 26.1 61 16.1 54 54 SE 15 24 29.8 1009 10 16.09344 0 0
1:53 pm 13:53 Sunny 80 26.7 59 15 49 49 SE 13 20 29.77 1008 10 16.09344 0 0
2:53 pm 14:53 Sunny 81 27.2 57 13.9 44 44 SE 17 28 29.77 1008 10 16.09344 0 0
3:53 pm 15:53 Sunny 80 26.7 54 12.2 41 41 ESE 20 31 29.74 1007 10 16.09344 0 0
4:53 pm 16:53 Sunny 77 25 55 12.8 47 47 ESE 17 28 29.74 1007 10 16.09344 0 0
5:53 pm 17:53 Mostly Sunny 76 24.4 59 15 56 56 SE 9 15 29.74 1007 10 16.09344 0 0
6:53 pm 18:53 Sunny 75 23.9 58 14.4 55 55 ESE 10 17 29.71 1006 10 16.09344 0 0
7:53 pm 19:53 Sunny 71 21.7 59 15 66 66 ESE 8 13 29.74 1007 10 16.09344 0 0
8:53 pm 20:53 Clear 69 20.6 58 14.4 68 68 ESE 8 13 29.77 1008 10 16.09344 0 0
9:53 pm 21:53 Cloudy 67 19.4 59 15 76 76 SW 10 17 29.8 1009 10 16.09344 0 0
10:53 pm 22:53 Mostly Cloudy 64 17.8 56 13.3 75 75 SW 6 9 29.8 1009 10 16.09344 0.001 0.001
11:25 pm 23:25 Cloudy with Light Rain 63 17.2 56 13.3 78 78 WSW 9 15 29.77 1008 9 14.484096 0.01 0.254
11:53 pm 23:53 Partly Cloudy 61 16.1 56 13.3 84 84 W 13 20 29.8 1009 10 16.09344 0.02 0.508

Powered by AerisWeather